Hourly Weather Kytchenkivka

Today, 21 October, Wednesday

Time Temperature Precipitation Wind Pressure Humidity
00:00 +4°C° 0 mm 2 mps 754 mmHg 78%
01:00 +4°C° 0 mm 2 mps 754 mmHg 80%
02:00 +3°C° 0 mm 2 mps 755 mmHg 82%
03:00 +3°C° 0 mm 2 mps 755 mmHg 83%
04:00 +4°C° 0 mm 1 mps 755 mmHg 84%
05:00 +4°C° 0 mm 1 mps 755 mmHg 85%
06:00 +5°C° 0 mm 1 mps 755 mmHg 81%
07:00 +4°C° 0 mm 2 mps 755 mmHg 78%
08:00 +5°C° 0 mm 2 mps 755 mmHg 75%
09:00 +6°C° 0 mm 2 mps 755 mmHg 70%
10:00 +8°C° 0 mm 3 mps 755 mmHg 65%
11:00 +8°C° 0 mm 4 mps 754 mmHg 59%
12:00 +10°C° 0 mm 4 mps 754 mmHg 58%
13:00 +10°C° 0 mm 4 mps 753 mmHg 57%
14:00 +9°C° 0 mm 5 mps 753 mmHg 55%
15:00 +10°C° 0 mm 4 mps 752 mmHg 57%
16:00 +9°C° 0 mm 3 mps 751 mmHg 59%
17:00 +9°C° 0 mm 3 mps 751 mmHg 61%
18:00 +9°C° 0 mm 3 mps 751 mmHg 61%
19:00 +9°C° 0 mm 3 mps 750 mmHg 61%
20:00 +8°C° 0 mm 4 mps 750 mmHg 61%
21:00 +8°C° 0 mm 4 mps 750 mmHg 62%
22:00 +8°C° 0 mm 4 mps 750 mmHg 64%
23:00 +8°C° 0 mm 4 mps 749 mmHg 65%

Tomorrow, 22 October, Thursday

Time Temperature Precipitation Wind Pressure Humidity
00:00 +8°C° 0 mm 4 mps 749 mmHg 69%
01:00 +8°C° 0 mm 4 mps 749 mmHg 74%
02:00 +9°C° 0 mm 3 mps 749 mmHg 79%
03:00 +9°C° 0 mm 3 mps 749 mmHg 79%
04:00 +9°C° 0 mm 3 mps 749 mmHg 79%
05:00 +9°C° 0 mm 2 mps 748 mmHg 79%
06:00 +9°C° 0 mm 2 mps 749 mmHg 77%
07:00 +9°C° 0 mm 2 mps 749 mmHg 75%
08:00 +9°C° 0 mm 2 mps 749 mmHg 72%
09:00 +12°C° 0 mm 2 mps 749 mmHg 65%
10:00 +13°C° 0 mm 2 mps 749 mmHg 58%
11:00 +13°C° 0 mm 3 mps 749 mmHg 51%
12:00 +13°C° 0 mm 3 mps 749 mmHg 52%
13:00 +13°C° 0 mm 3 mps 749 mmHg 52%
14:00 +13°C° 0 mm 3 mps 749 mmHg 52%
15:00 +12°C° 0 mm 3 mps 748 mmHg 55%
16:00 +12°C° 0 mm 3 mps 748 mmHg 57%
17:00 +11°C° 0 mm 3 mps 748 mmHg 60%
18:00 +11°C° 0 mm 3 mps 748 mmHg 60%
19:00 +11°C° 0 mm 4 mps 748 mmHg 60%
20:00 +11°C° 0 mm 4 mps 748 mmHg 60%
21:00 +10°C° 0 mm 4 mps 748 mmHg 59%
22:00 +10°C° 0 mm 4 mps 748 mmHg 58%
23:00 +10°C° 0 mm 4 mps 748 mmHg 57%

Day after tomorrow, 23 October, Friday

Time Temperature Precipitation Wind Pressure Humidity
00:00 +10°C° 0 mm 4 mps 748 mmHg 58%
01:00 +10°C° 0 mm 4 mps 748 mmHg 58%
02:00 +11°C° 0 mm 3 mps 748 mmHg 58%
03:00 +10°C° 0 mm 3 mps 748 mmHg 60%
04:00 +10°C° 0 mm 3 mps 748 mmHg 63%
05:00 +10°C° 0 mm 2 mps 747 mmHg 65%
06:00 +10°C° 0 mm 2 mps 747 mmHg 65%
07:00 +12°C° 0 mm 2 mps 747 mmHg 64%
08:00 +12°C° 0 mm 2 mps 747 mmHg 64%
09:00 +13°C° 0 mm 3 mps 747 mmHg 60%
10:00 +14°C° 0 mm 3 mps 747 mmHg 55%
11:00 +16°C° 0 mm 3 mps 747 mmHg 51%
12:00 +17°C° 0 mm 3 mps 747 mmHg 49%
13:00 +18°C° 0 mm 3 mps 746 mmHg 46%
14:00 +18°C° 0 mm 4 mps 746 mmHg 43%
15:00 +17°C° 0 mm 3 mps 746 mmHg 46%
16:00 +16°C° 0 mm 3 mps 745 mmHg 48%
17:00 +14°C° 0 mm 3 mps 745 mmHg 51%
18:00 +13°C° 0 mm 3 mps 745 mmHg 52%
19:00 +13°C° 0 mm 3 mps 745 mmHg 54%
20:00 +13°C° 0 mm 2 mps 745 mmHg 55%
21:00 +13°C° 0 mm 2 mps 744 mmHg 56%
22:00 +13°C° 0 mm 2 mps 744 mmHg 56%
23:00 +12°C° 0 mm 2 mps 744 mmHg 57%

24 October, Saturday

Time Temperature Precipitation Wind Pressure Humidity
00:00 +12°C° 0 mm 2 mps 744 mmHg 58%
01:00 +12°C° 0 mm 2 mps 744 mmHg 60%
02:00 +12°C° 0 mm 2 mps 744 mmHg 61%
03:00 +12°C° 0 mm 2 mps 744 mmHg 63%
04:00 +12°C° 0 mm 2 mps 744 mmHg 65%
05:00 +10°C° 0 mm 2 mps 744 mmHg 68%
06:00 +12°C° 0 mm 1 mps 744 mmHg 66%
07:00 +12°C° 0 mm 1 mps 744 mmHg 65%
08:00 +13°C° 0 mm 1 mps 744 mmHg 64%
09:00 +14°C° 0 mm 1 mps 744 mmHg 60%
10:00 +15°C° 0 mm 1 mps 744 mmHg 56%
11:00 +16°C° 0 mm 1 mps 744 mmHg 52%
12:00 +17°C° 0 mm 2 mps 743 mmHg 49%
13:00 +17°C° 0 mm 2 mps 743 mmHg 47%
14:00 +18°C° 0 mm 2 mps 743 mmHg 44%
15:00 +17°C° 0 mm 2 mps 743 mmHg 47%
16:00 +15°C° 0 mm 2 mps 742 mmHg 51%
17:00 +14°C° 0 mm 2 mps 742 mmHg 55%
18:00 +14°C° 0 mm 2 mps 742 mmHg 56%
19:00 +13°C° 0 mm 2 mps 742 mmHg 57%
20:00 +13°C° 0 mm 2 mps 742 mmHg 59%
21:00 +13°C° 0 mm 2 mps 741 mmHg 58%
22:00 +12°C° 0 mm 3 mps 741 mmHg 58%
23:00 +12°C° 0 mm 3 mps 741 mmHg 57%

25 October, Sunday

Time Temperature Precipitation Wind Pressure Humidity
00:00 +12°C° 0 mm 4 mps 741 mmHg 62%
01:00 +12°C° 0 mm 4 mps 740 mmHg 67%
02:00 +12°C° 0 mm 5 mps 740 mmHg 72%
03:00 +12°C° 0.1 mm 5 mps 740 mmHg 75%
04:00 +12°C° 0.1 mm 5 mps 740 mmHg 79%
05:00 +12°C° 0.1 mm 5 mps 740 mmHg 82%
06:00 +10°C° 0 mm 6 mps 740 mmHg 80%
07:00 +10°C° 0 mm 6 mps 741 mmHg 79%
08:00 +10°C° 0 mm 7 mps 741 mmHg 77%
09:00 +10°C° 0 mm 7 mps 741 mmHg 71%
10:00 +10°C° 0 mm 7 mps 741 mmHg 65%
11:00 +11°C° 0 mm 7 mps 741 mmHg 60%
12:00 +11°C° 0 mm 8 mps 741 mmHg 58%
13:00 +11°C° 0 mm 8 mps 741 mmHg 57%
14:00 +11°C° 0 mm 8 mps 741 mmHg 55%
15:00 +10°C° 0.1 mm 8 mps 741 mmHg 61%
16:00 +9°C° 0.1 mm 8 mps 741 mmHg 67%
17:00 +9°C° 0.1 mm 8 mps 741 mmHg 73%
18:00 +9°C° 0.2 mm 8 mps 741 mmHg 75%
19:00 +9°C° 0.2 mm 8 mps 741 mmHg 76%
20:00 +8°C° 0.2 mm 9 mps 741 mmHg 77%
21:00 +9°C° 0.2 mm 8 mps 741 mmHg 79%
22:00 +9°C° 0.2 mm 8 mps 741 mmHg 81%
23:00 +8°C° 0.2 mm 7 mps 741 mmHg 82%

26 October, Monday

Time Temperature Precipitation Wind Pressure Humidity
00:00 +9°C° 0.2 mm 7 mps 741 mmHg 82%
01:00 +9°C° 0.2 mm 7 mps 742 mmHg 81%
02:00 +9°C° 0.2 mm 7 mps 742 mmHg 80%
03:00 +9°C° 0 mm 7 mps 742 mmHg 79%
04:00 +9°C° 0 mm 7 mps 743 mmHg 79%
05:00 +8°C° 0 mm 7 mps 743 mmHg 78%
06:00 +8°C° 0 mm 7 mps 744 mmHg 77%
07:00 +8°C° 0 mm 7 mps 745 mmHg 77%
08:00 +8°C° 0 mm 7 mps 745 mmHg 76%
09:00 +9°C° 0 mm 6 mps 746 mmHg 73%
10:00 +9°C° 0 mm 6 mps 746 mmHg 70%
11:00 +10°C° 0 mm 6 mps 747 mmHg 67%
12:00 +10°C° 0 mm 6 mps 747 mmHg 64%
13:00 +10°C° 0 mm 6 mps 747 mmHg 61%
14:00 +11°C° 0 mm 6 mps 748 mmHg 57%
15:00 +10°C° 0 mm 5 mps 748 mmHg 60%
16:00 +10°C° 0 mm 4 mps 748 mmHg 62%
17:00 +7°C° 0 mm 4 mps 748 mmHg 64%
18:00 +7°C° 0 mm 4 mps 749 mmHg 64%
19:00 +6°C° 0 mm 4 mps 749 mmHg 64%
20:00 +5°C° 0 mm 3 mps 750 mmHg 65%
21:00 +5°C° 0 mm 3 mps 750 mmHg 67%
22:00 +4°C° 0 mm 3 mps 750 mmHg 69%
23:00 +3°C° 0 mm 3 mps 751 mmHg 71%

27 October, Tuesday

Time Temperature Precipitation Wind Pressure Humidity
00:00 +3°C° 0 mm 3 mps 751 mmHg 73%
01:00 +2°C° 0 mm 3 mps 751 mmHg 76%
02:00 +2°C° 0 mm 3 mps 752 mmHg 78%
03:00 +2°C° 0 mm 3 mps 752 mmHg 80%
04:00 +1°C° 0 mm 3 mps 752 mmHg 81%
05:00 +1°C° 0 mm 3 mps 753 mmHg 83%
06:00 +1°C° 0 mm 3 mps 753 mmHg 81%
07:00 +2°C° 0 mm 3 mps 753 mmHg 78%
08:00 +2°C° 0 mm 3 mps 754 mmHg 76%
09:00 +4°C° 0 mm 3 mps 754 mmHg 69%
10:00 +7°C° 0 mm 3 mps 754 mmHg 63%
11:00 +8°C° 0 mm 3 mps 754 mmHg 56%
12:00 +9°C° 0 mm 3 mps 754 mmHg 52%
13:00 +9°C° 0 mm 3 mps 754 mmHg 48%
14:00 +10°C° 0 mm 3 mps 754 mmHg 44%
15:00 +9°C° 0 mm 3 mps 754 mmHg 49%
16:00 +8°C° 0 mm 3 mps 754 mmHg 53%
17:00 +5°C° 0 mm 3 mps 754 mmHg 58%
18:00 +5°C° 0 mm 3 mps 755 mmHg 60%
19:00 +4°C° 0 mm 3 mps 755 mmHg 63%
20:00 +4°C° 0 mm 3 mps 755 mmHg 65%
21:00 +4°C° 0 mm 2 mps 755 mmHg 66%
22:00 +4°C° 0 mm 2 mps 755 mmHg 67%
23:00 +4°C° 0 mm 2 mps 755 mmHg 67%
Show more

We Need Your Consent

Meteoprog and our Service Providers may store and access personal data such as cookies, device identifiers or other similar technologies on your device and process such data to personalise content and ads, as well as provide social media features and to analyse the traffic.

  • Store and/or access information on your device

    Cookies, device identifiers or other information can be stored or accessed on your device for the purposes indicated above.

  • Personalised ads and content, ad and content measurement, audience insights, and products development

    Ads and content can be personalised based on a profile. More data can be added to better personalise ads and content. Ad and content performance can be measured. Insights about the audience who saw the ads and content can be derived. Such data can be used to develop or improve user’s experience, systems and software.

By clicking ‘I Agree’ you will allow the use of indicated cookies, device identifiers, web beacons or other similar technologies. Your settings can be changed in the browser on your device.

For certain purposes, legitimate interests may be relied on, rather than consent. You can read more about this in our Privacy and Cookie Policy.